#timestamp,LO_Frequency,Hit,StdDev 
1557770415.3,286047000.2,N
1557770435.1,286047000.0,N
1557770455.9,286046998.4,N
1557770475.7,286046998.5,N
1557770495.5,286046995.0,N
1557770515.4,286046995.3,N
1557770535.2,286046996.5,N
1557770555.0,286046999.0,N
1557770555.9,286046999.0,N
1557770575.8,286047001.2,N
1557770595.6,286047000.2,N
1557770615.5,286047002.4,N
1557770635.3,286046999.7,N
1557770655.1,286047000.6,N
1557770675.9,286046998.9,N
1557770695.7,286046998.8,N
1557770715.6,286047000.0,N
1557770735.4,286046996.9,N
1557770755.2,286046999.0,N
1557770775.1,286046999.1,N
1557770776.0,286046999.1,N
1557770795.8,286046996.9,N
1557770815.7,286046997.7,N
1557770835.5,286046999.2,N
1557770855.3,286046998.6,N
1557770875.2,286047000.6,N
1557770895.9,286046998.1,N
1557770915.7,286046998.5,N
1557770935.6,286047001.0,N
1557770955.4,286047000.5,N
1557770975.3,286046999.3,N
1557770995.1,286046998.7,N
1557770996.0,286046998.7,N
1557771015.8,286046998.5,N
1557771035.7,286046999.5,N
1557771055.5,286046996.6,N
1557771075.3,286046999.4,N
1557771095.2,286046999.5,N
1557771115.0,286046999.4,N
1557771115.9,286046999.4,N
1557771135.8,286046994.9,Y
1557771155.6,286046996.7,P
1557771175.4,286046998.6,N
1557771195.3,286047002.7,N
1557771215.1,286047003.9,N
1557771235.8,286047002.6,N
1557771255.7,286047004.3,N
1557771275.5,286047001.8,N
1557771295.4,286047001.8,N
1557771315.2,286047002.0,N
1557771335.0,286047001.4,N
1557771335.9,286047001.4,N
1557771355.8,286047004.1,N
1557771375.6,286046999.7,N
1557771395.5,286047000.5,N
1557771415.3,286047000.2,N
1557771435.1,286047000.0,N
1557771455.9,286047000.4,N
1557771475.7,286047000.7,N
1557771495.5,286047000.1,N
1557771515.4,286047000.1,N
1557771535.2,286047000.1,N
1557771555.1,286047000.0,N
1557771556.0,286047000.0,N
1557771575.8,286047000.3,N
1557771595.6,286046999.7,N
1557771615.5,286047000.0,N
1557771635.3,286047002.4,N
1557771655.1,286047004.4,N
1557771675.9,286047002.5,N
1557771695.7,286047001.4,N
1557771715.6,286047000.2,N
1557771735.4,286047000.2,N
1557771755.2,286047002.5,N
1557771775.1,286047002.4,N
1557771776.0,286047002.4,N
1557771795.8,286047002.6,N
1557771815.6,286047001.7,N
1557771835.5,286047003.7,N
1557771855.3,286047003.5,N
1557771875.2,286047001.7,N
1557771895.9,286047005.5,Y
1557771915.7,286047005.0,P
1557771935.6,286047002.9,N
1557771955.4,286047011.9,P
1557771975.2,286046999.8,N
1557771995.1,286047002.4,N
1557771996.0,286047002.4,N
1557772015.8,286047003.8,N
1557772035.7,286047001.5,N
1557772055.5,286047003.5,N
1557772075.3,286047000.1,N
1557772095.2,286046999.9,N
1557772115.0,286046998.1,N
1557772115.9,286046998.1,N
1557772135.7,286047000.6,N
1557772155.6,286047001.6,N
1557772175.4,286047000.2,N
1557772195.3,286047001.1,N
1557772215.1,286047000.4,N
1557772216.0,286047000.4,N
1557772235.8,286047002.1,N
1557772255.7,286047001.9,N
1557772275.5,286047003.9,N
1557772295.3,286047001.4,N
1557772315.2,286047004.2,N
1557772335.0,286047003.4,N
1557772335.9,286047003.4,N
1557772355.8,286047004.2,N
1557772375.6,286047002.5,N
1557772395.4,286047001.8,N
1557772415.3,286047004.2,N
1557772435.1,286047005.8,N
1557772455.9,286047004.9,N
1557772475.7,286047007.5,N
1557772495.5,286047005.8,N
1557772515.4,286047002.9,N
1557772535.2,286047003.2,N
1557772555.0,286047003.7,N
1557772555.9,286047003.7,N
1557772575.8,286047003.0,N
1557772595.6,286047003.8,N
1557772615.5,286047005.2,N
1557772635.3,286047003.2,N
1557772655.1,286047003.5,N
1557772675.9,286047003.4,N
1557772695.7,286047003.8,N
1557772715.5,286047004.1,N
1557772735.4,286046999.7,N
1557772755.2,286047002.7,N
1557772775.1,286047001.2,N
1557772776.0,286047001.2,N
1557772795.8,286046998.1,N
1557772815.6,286047000.1,N
1557772835.5,286047001.4,N
1557772855.3,286047005.6,N
1557772875.1,286047003.1,N
1557772895.9,286047004.2,N
1557772915.7,286047011.9,Y
1557772935.6,286047002.6,P
1557772955.4,286047000.5,N
1557772975.2,286046998.1,N
1557772995.1,286046998.6,N
1557772996.0,286046998.6,N
1557773015.8,286046996.5,N
1557773035.6,286046999.0,N
1557773055.5,286046998.3,N
1557773075.3,286046999.5,N
1557773095.2,286046998.8,N
1557773115.9,286047000.7,N
1557773135.7,286046998.7,N
1557773155.6,286046998.6,N
1557773175.4,286046997.3,N
1557773195.2,286046996.5,N
1557773215.1,286047000.9,N
1557773216.0,286047000.9,N
1557773235.8,286047000.4,N
1557773255.7,286047000.2,N
1557773275.5,286047002.5,N
1557773295.3,286047000.2,N
1557773315.2,286047001.3,N
1557773335.0,286047001.9,N
1557773335.9,286047001.9,N
1557773355.8,286046999.4,N
1557773375.6,286046996.6,N
1557773395.4,286046999.5,N
1557773415.3,286046997.4,N
1557773435.1,286046998.5,N
1557773455.8,286047000.0,N
1557773475.7,286047002.0,N
1557773495.5,286047002.8,N
1557773515.3,286047002.4,N
1557773535.2,286047002.3,N
1557773555.0,286047001.8,N
1557773555.9,286047001.8,N
1557773575.8,286047001.6,N
1557773595.6,286046999.7,N
1557773615.4,286047002.5,N
1557773635.3,286047001.6,N
1557773655.1,286046998.6,N
1557773675.8,286046998.7,N
1557773695.7,286046999.8,N
1557773715.5,286047000.2,N
1557773735.4,286046999.9,N
1557773755.2,286046998.3,N
1557773775.0,286046996.5,N
1557773775.9,286046996.5,N
1557773795.8,286047002.0,N
1557773815.6,286047002.0,N
1557773835.4,286047002.0,N
1557773855.3,286047003.4,N
1557773875.1,286047002.3,N
1557773895.9,286047002.3,N
1557773915.7,286047002.6,N
1557773935.5,286047000.0,N
1557773955.4,286047000.3,N
1557773975.2,286046998.8,N
1557773995.0,286046999.3,N
1557773995.9,286046999.3,N
